When you browse on this site, cookies collect data to enhance your experience and personalize the content and advertising you see.
Visit our Privacy Policy to learn more. By continuing to use the site, you agree to this use of cookies and data.
  • Em Portugal
  • Lista de países
  • Para 7 dias
  • Temperatura da água
  • Mapas de satélite
  • Mapa do tempo
  • Widgets de tempo
  • user-avatar
    Iniciar Sessão

    Previsão horária em Wielany

    Hoje, 26 Junho, Quarta-feira

    Tempo Temperatura Precipitação Vento Pressão Humidade
    00:00 +25°C° 0 mm 3 m/s 759 mmHg 82%
    01:00 +25°C° 0 mm 3 m/s 759 mmHg 82%
    02:00 +24°C° 0 mm 3 m/s 758 mmHg 83%
    03:00 +24°C° 0 mm 3 m/s 758 mmHg 84%
    04:00 +24°C° 0 mm 3 m/s 758 mmHg 85%
    05:00 +25°C° 0 mm 3 m/s 758 mmHg 80%
    06:00 +27°C° 0 mm 3 m/s 758 mmHg 76%
    07:00 +28°C° 0 mm 4 m/s 758 mmHg 71%
    08:00 +29°C° 0 mm 4 m/s 758 mmHg 67%
    09:00 +32°C° 0 mm 4 m/s 757 mmHg 62%
    10:00 +33°C° 0 mm 4 m/s 757 mmHg 58%
    11:00 +34°C° 0 mm 4 m/s 757 mmHg 56%
    12:00 +34°C° 0 mm 4 m/s 757 mmHg 54%
    13:00 +35°C° 0 mm 5 m/s 757 mmHg 52%
    14:00 +35°C° 0 mm 4 m/s 756 mmHg 52%
    15:00 +35°C° 0 mm 4 m/s 755 mmHg 52%
    16:00 +35°C° 0 mm 4 m/s 755 mmHg 52%
    17:00 +34°C° 0 mm 4 m/s 755 mmHg 57%
    18:00 +33°C° 0 mm 4 m/s 754 mmHg 61%
    19:00 +32°C° 0 mm 4 m/s 754 mmHg 66%
    20:00 +30°C° 0.2 mm 4 m/s 754 mmHg 69%
    21:00 +28°C° 0.2 mm 4 m/s 754 mmHg 72%
    22:00 +27°C° 0.2 mm 4 m/s 754 mmHg 76%
    23:00 +25°C° 0.5 mm 4 m/s 754 mmHg 81%

    Amanhã, 27 Junho, Quinta-feira

    Tempo Temperatura Precipitação Vento Pressão Humidade
    00:00 +23°C° 0.5 mm 4 m/s 754 mmHg 86%
    01:00 +21°C° 0.5 mm 4 m/s 755 mmHg 92%
    02:00 +21°C° 0 mm 4 m/s 755 mmHg 92%
    03:00 +20°C° 0 mm 4 m/s 755 mmHg 93%
    04:00 +19°C° 0 mm 4 m/s 755 mmHg 93%
    05:00 +19°C° 0 mm 5 m/s 755 mmHg 89%
    06:00 +17°C° 0 mm 6 m/s 755 mmHg 85%
    07:00 +17°C° 0 mm 7 m/s 755 mmHg 80%
    08:00 +18°C° 0 mm 7 m/s 755 mmHg 74%
    09:00 +18°C° 0 mm 7 m/s 756 mmHg 68%
    10:00 +20°C° 0 mm 7 m/s 756 mmHg 61%
    11:00 +21°C° 0 mm 7 m/s 756 mmHg 60%
    12:00 +22°C° 0 mm 7 m/s 756 mmHg 59%
    13:00 +22°C° 0 mm 7 m/s 756 mmHg 58%
    14:00 +22°C° 0 mm 7 m/s 756 mmHg 60%
    15:00 +22°C° 0 mm 7 m/s 755 mmHg 61%
    16:00 +22°C° 0 mm 7 m/s 755 mmHg 63%
    17:00 +21°C° 0 mm 7 m/s 755 mmHg 67%
    18:00 +20°C° 0 mm 6 m/s 755 mmHg 70%
    19:00 +20°C° 0 mm 5 m/s 755 mmHg 74%
    20:00 +19°C° 0 mm 5 m/s 756 mmHg 79%
    21:00 +17°C° 0 mm 4 m/s 756 mmHg 84%
    22:00 +16°C° 0 mm 3 m/s 757 mmHg 89%
    23:00 +16°C° 0 mm 3 m/s 757 mmHg 91%

    Depois de amanhã, 28 Junho, Sexta-feira

    Tempo Temperatura Precipitação Vento Pressão Humidade
    00:00 +15°C° 0 mm 2 m/s 757 mmHg 94%
    01:00 +14°C° 0 mm 2 m/s 757 mmHg 96%
    02:00 +14°C° 0 mm 2 m/s 757 mmHg 96%
    03:00 +14°C° 0 mm 2 m/s 757 mmHg 96%
    04:00 +14°C° 0 mm 1 m/s 757 mmHg 96%
    05:00 +15°C° 0 mm 2 m/s 757 mmHg 90%
    06:00 +17°C° 0 mm 2 m/s 757 mmHg 83%
    07:00 +18°C° 0 mm 3 m/s 757 mmHg 76%
    08:00 +20°C° 0.1 mm 3 m/s 757 mmHg 69%
    09:00 +21°C° 0.1 mm 3 m/s 757 mmHg 63%
    10:00 +22°C° 0.1 mm 4 m/s 757 mmHg 56%
    11:00 +23°C° 0.1 mm 4 m/s 757 mmHg 54%
    12:00 +23°C° 0.1 mm 5 m/s 757 mmHg 52%
    13:00 +25°C° 0.1 mm 5 m/s 757 mmHg 50%
    14:00 +25°C° 0 mm 5 m/s 757 mmHg 50%
    15:00 +23°C° 0 mm 5 m/s 757 mmHg 50%
    16:00 +23°C° 0 mm 5 m/s 757 mmHg 50%
    17:00 +22°C° 0 mm 5 m/s 757 mmHg 55%
    18:00 +21°C° 0 mm 4 m/s 757 mmHg 60%
    19:00 +19°C° 0 mm 4 m/s 758 mmHg 64%
    20:00 +18°C° 0 mm 3 m/s 758 mmHg 67%
    21:00 +16°C° 0 mm 3 m/s 758 mmHg 69%
    22:00 +14°C° 0 mm 2 m/s 759 mmHg 72%
    23:00 +14°C° 0 mm 2 m/s 759 mmHg 72%

    29 Junho, Sábado

    Tempo Temperatura Precipitação Vento Pressão Humidade
    00:00 +13°C° 0 mm 1 m/s 759 mmHg 73%
    01:00 +12°C° 0 mm 1 m/s 759 mmHg 74%
    02:00 +12°C° 0 mm 1 m/s 759 mmHg 75%
    03:00 +12°C° 0 mm 1 m/s 759 mmHg 76%
    04:00 +12°C° 0 mm 2 m/s 759 mmHg 76%
    05:00 +14°C° 0 mm 2 m/s 759 mmHg 73%
    06:00 +16°C° 0 mm 2 m/s 759 mmHg 69%
    07:00 +18°C° 0 mm 2 m/s 759 mmHg 65%
    08:00 +19°C° 0 mm 3 m/s 759 mmHg 61%
    09:00 +21°C° 0 mm 3 m/s 759 mmHg 57%
    10:00 +22°C° 0 mm 4 m/s 759 mmHg 52%
    11:00 +23°C° 0 mm 4 m/s 758 mmHg 51%
    12:00 +25°C° 0 mm 4 m/s 758 mmHg 49%
    13:00 +26°C° 0 mm 4 m/s 757 mmHg 47%
    14:00 +26°C° 0 mm 4 m/s 757 mmHg 46%
    15:00 +26°C° 0 mm 4 m/s 757 mmHg 46%
    16:00 +26°C° 0 mm 4 m/s 757 mmHg 46%
    17:00 +25°C° 0 mm 3 m/s 756 mmHg 51%
    18:00 +24°C° 0 mm 2 m/s 756 mmHg 57%
    19:00 +23°C° 0 mm 2 m/s 756 mmHg 62%
    20:00 +21°C° 0 mm 2 m/s 756 mmHg 61%
    21:00 +20°C° 0 mm 2 m/s 756 mmHg 60%
    22:00 +18°C° 0 mm 2 m/s 756 mmHg 60%
    23:00 +18°C° 0 mm 2 m/s 756 mmHg 61%

    30 Junho, Domingo

    Tempo Temperatura Precipitação Vento Pressão Humidade
    00:00 +17°C° 0 mm 2 m/s 756 mmHg 62%
    01:00 +17°C° 0 mm 3 m/s 756 mmHg 63%
    02:00 +17°C° 0 mm 3 m/s 756 mmHg 66%
    03:00 +16°C° 0 mm 3 m/s 756 mmHg 68%
    04:00 +16°C° 0 mm 3 m/s 756 mmHg 71%
    05:00 +18°C° 0 mm 3 m/s 756 mmHg 69%
    06:00 +19°C° 0 mm 3 m/s 756 mmHg 66%
    07:00 +21°C° 0 mm 3 m/s 756 mmHg 64%
    08:00 +24°C° 0 mm 3 m/s 755 mmHg 59%
    09:00 +26°C° 0 mm 3 m/s 755 mmHg 53%
    10:00 +28°C° 0 mm 4 m/s 755 mmHg 48%
    11:00 +29°C° 0 mm 4 m/s 755 mmHg 46%
    12:00 +30°C° 0 mm 4 m/s 754 mmHg 45%
    13:00 +32°C° 0 mm 5 m/s 754 mmHg 43%
    14:00 +32°C° 0 mm 5 m/s 753 mmHg 44%
    15:00 +32°C° 0 mm 5 m/s 753 mmHg 45%
    16:00 +32°C° 0 mm 5 m/s 753 mmHg 46%
    17:00 +30°C° 0 mm 5 m/s 752 mmHg 51%
    18:00 +28°C° 0 mm 5 m/s 752 mmHg 57%
    19:00 +27°C° 0 mm 5 m/s 752 mmHg 62%
    20:00 +26°C° 0 mm 5 m/s 752 mmHg 64%
    21:00 +25°C° 0 mm 5 m/s 752 mmHg 65%
    22:00 +23°C° 0 mm 5 m/s 752 mmHg 67%
    23:00 +23°C° 0 mm 5 m/s 752 mmHg 70%

    1 Julho, Segunda-feira

    Tempo Temperatura Precipitação Vento Pressão Humidade
    00:00 +22°C° 0 mm 5 m/s 752 mmHg 72%
    01:00 +22°C° 0 mm 4 m/s 752 mmHg 75%
    02:00 +21°C° 0 mm 4 m/s 752 mmHg 79%
    03:00 +20°C° 0 mm 3 m/s 752 mmHg 84%
    04:00 +19°C° 0 mm 2 m/s 752 mmHg 88%
    05:00 +20°C° 0 mm 2 m/s 752 mmHg 83%
    06:00 +21°C° 0 mm 3 m/s 753 mmHg 78%
    07:00 +22°C° 0 mm 3 m/s 753 mmHg 73%
    08:00 +23°C° 0 mm 4 m/s 753 mmHg 66%
    09:00 +25°C° 0 mm 4 m/s 753 mmHg 60%
    10:00 +25°C° 0 mm 5 m/s 753 mmHg 54%
    11:00 +26°C° 0 mm 5 m/s 752 mmHg 54%
    12:00 +27°C° 0 mm 5 m/s 752 mmHg 53%
    13:00 +28°C° 0 mm 5 m/s 752 mmHg 53%
    14:00 +28°C° 0 mm 4 m/s 751 mmHg 54%
    15:00 +28°C° 0 mm 4 m/s 751 mmHg 54%
    16:00 +28°C° 0 mm 4 m/s 750 mmHg 55%
    17:00 +27°C° 0 mm 3 m/s 750 mmHg 59%
    18:00 +26°C° 0 mm 2 m/s 750 mmHg 63%
    19:00 +25°C° 0 mm 1 m/s 750 mmHg 68%
    20:00 +23°C° 0.2 mm 1 m/s 750 mmHg 69%
    21:00 +21°C° 0.2 mm 2 m/s 750 mmHg 70%
    22:00 +20°C° 0.2 mm 2 m/s 750 mmHg 71%
    23:00 +19°C° 0 mm 2 m/s 750 mmHg 72%
    Mostrar mais